Location: General Nathan Twining Observatory
(34.5931°N, 106.8201°W)
Time: 01:27:10
(UTC-07:00)

Daily predictions for brighter satellites

Satellite Brightness Start Highest point End
(mag) Time Altitude Azimuth Time Altitude Azimuth Time Altitude Azimuth
CZ-3C R/B 4.1 03:18:20 32° SSE 03:18:29 32° SSE 03:41:25 10° E
Cosmos 2297 4.1 04:24:45 56° NE 04:25:01 57° ENE 04:30:34 10° SE
Cosmos 2278 Rocket 3.6 04:42:53 25° SSW 04:42:53 25° SSW 04:45:17 10° S
OAO 3 Copernicus 4.5 04:41:52 70° E 04:41:52 70° E 04:46:25 10° E
USA 215 3.1 04:36:15 10° NE 04:42:47 78° NW 04:44:09 58° WSW
SL-16 R/B 3.3 04:47:25 29° N 04:47:25 29° N 04:50:15 10° NNE
CZ-3 R/B 3.6 04:32:44 10° SW 04:48:14 32° S 04:53:28 10° ESE
COSMO-SKYMED 1 4.4 04:46:34 10° SE 04:50:18 29° ENE 04:54:02 10° NNE
Meteor 1-25 Rocket 4.3 04:44:48 10° S 04:50:38 83° E 04:56:29 10° N
Cosmos 1812 3.5 04:52:19 50° ENE 04:52:26 50° E 04:56:11 10° SSE
CENTAUR R/B 3.7 05:00:01 26° NNW 05:00:01 26° NNW 05:04:07 10° NNE
Cosmos 1238 Rocket 3.6 04:57:08 24° N 05:00:12 78° E 05:06:08 10° S
Cosmos 1346 Rocket 4.3 04:58:39 16° NNE 05:01:18 35° ENE 05:04:55 10° SE
Cosmos 2112 Rocket 4.3 05:04:00 46° NNW 05:04:00 46° NNW 05:07:59 10° N
NOAA 6 3.9 05:04:38 10° NNE 05:09:47 89° W 05:14:54 10° SSW
Cosmos 2327 Rocket 4.4 05:05:28 10° S 05:11:51 81° W 05:18:14 10° N
Cosmos 1300 Rocket 4.2 05:09:17 10° S 05:13:36 56° E 05:17:56 10° NNE
Lacrosse 5 2.0 05:13:28 10° SSW 05:18:33 73° SE 05:23:38 10° NE
Timation 1 Rocket 4.5 05:18:41 34° NW 05:20:54 52° WSW 05:26:41 10° S
Cosmos 2074 Rocket 3.9 05:14:44 10° SSW 05:20:56 64° W 05:27:10 10° N
Cosmos 192 4.4 05:23:32 10° SSW 05:28:25 80° ESE 05:33:20 10° NNE
Radarsat Rocket 4.5 05:21:26 10° NNE 05:28:36 80° WNW 05:36:41 10° SSW
Thor Agena Rocket 4.3 05:25:00 10° SSW 05:29:14 30° W 05:29:14 30° W
Cosmos 44 Rocket 3.5 05:24:47 10° SSW 05:29:58 81° ESE 05:35:07 10° NNE
Cosmos 2184 Rocket 4.1 05:30:00 10° SSW 05:35:54 49° W 05:41:53 10° N
CSL-04 Rocket 4.0 05:31:34 10° NNE 05:37:07 70° ESE 05:42:34 10° S
SKYMED 2 3.4 05:33:55 10° S 05:38:14 75° WSW 05:42:34 10° NNW
CSL-04 DEB 4.3 05:36:51 10° N 05:40:55 80° WNW 05:45:04 10° SSW
Cosmos 2151 Rocket 4.4 05:37:56 10° SW 05:41:48 28° WNW 05:45:41 10° NNW
Cosmos 1603 3.8 05:36:44 10° SW 05:42:16 52° WNW 05:47:49 10° N
Meteor 2-13 Rocket 4.4 05:40:07 10° S 05:46:16 87° W 05:52:28 10° N
Cosmos 2369 Rocket 3.5 05:42:09 10° N 05:47:30 39° ENE 05:52:48 10° SE
Cosmos 2056 Rocket 3.4 05:43:45 10° NNW 05:48:56 89° ENE 05:54:01 10° SSE
Gbstr 26 Del rocket 3.9 05:47:45 23° W 05:49:35 32° SW 05:53:11 10° S
SL-24 R/B 4.4 05:45:06 10° N 05:50:31 83° WNW 05:55:06 10° SSW
Cosmos 2154 Rocket 3.9 05:45:07 10° S 05:51:20 75° W 05:57:32 10° N
GPS 2-05 Rocket1 2.8 05:52:29 25° W 05:54:27 89° S 05:58:05 10° E
DELTA 2 R/B (1) 4.5 05:54:08 17° W 05:57:41 35° SW 06:02:42 10° SSE
Cosmos 1624 Rocket 4.1 05:57:37 10° NNW 06:02:50 61° WSW 06:08:03 10° S
Ariane Rocket 3.2 06:00:41 10° N 06:05:31 47° WNW 06:10:20 10° SW
Cosmos 1371 Rocket 4.4 06:02:11 10° NNW 06:07:11 43° WSW 06:12:06 10° S
Cosmos 1943 3.1 06:02:47 10° SSW 06:08:22 71° WNW 06:14:01 10° NNE
IDEFIX/ARIANE 42P 3.5 06:04:52 10° NNE 06:09:56 52° E 06:14:59 10° S
Tiangong 2 3.0 06:10:59 12° NW 06:12:54 18° N 06:15:09 10° NE
YAOGAN 1 3.6 06:08:44 10° NNE 06:12:57 50° E 06:17:09 10° S
Cosmos 1025 Rocket 3.0 06:14:27 10° N 06:18:51 87° W 06:23:11 10° S
Abrixas rocket 3.2 06:17:20 10° W 06:20:21 30° NNW 06:23:22 10° NNE
Okean 1 Rocket 3.9 06:17:33 10° SW 06:21:21 28° WNW 06:25:09 10° NNW
USA 215 4.3 06:20:05 10° NNE 06:25:05 24° NNW 06:30:04 10° WNW
OAO 3 Copernicus 4.4 06:20:50 10° W 06:25:56 88° N 06:31:02 10° E
Cosmos 1544 Rocket 3.8 06:21:54 10° S 06:26:12 74° E 06:30:34 10° N
COSMO-SKYMED 1 4.0 06:23:16 10° SW 06:26:26 20° W 06:29:36 10° NW
SL-8 Rocket 4.0 06:20:21 10° S 06:26:38 87° W 06:32:54 10° N
MOS 1 4.5 06:24:23 10° NNE 06:30:04 81° ESE 06:35:43 10° S
Meteor 1-11 Rocket 4.4 06:25:45 10° SW 06:31:03 35° WNW 06:36:18 10° N
GRACE-2 4.0 06:31:00 10° N 06:33:43 51° W 06:36:26 10° SSW
GRACE-1 4.1 06:31:26 10° N 06:34:08 49° W 06:36:50 10° SSW
Cosmos 1943 Rocket 3.2 06:31:52 10° N 06:37:09 46° ENE 06:42:25 10° SE
Cosmos 44 3.8 06:32:19 10° SW 06:37:27 44° WNW 06:42:27 10° NNE
Cosmos 2366 rocket 4.2 06:31:13 10° S 06:37:27 83° E 06:43:49 10° N
